Change the Weather History Date:

Saturday, November 2, 2013

  Actual Average Record
Temperature  
Mean Temperature 67 °F 65 °F  
Max Temperature 86 °F 79 °F 93 °F (1916)
Min Temperature 47 °F 51 °F 33 °F (1956)
Degree Days  
Heating Degree Days 0 3  
Month to date heating degree days 3 5  
Since 1 July heating degree days 16 29  
Cooling Degree Days 2 3  
Month to date cooling degree days 2 6  
Year to date cooling degree days 3606 3125  
Growing Degree Days 16 (Base 50)    
Moisture  
Dew Point 20 °F    
Average Humidity 20    
Maximum Humidity 34    
Minimum Humidity 5    
Precipitation  
Precipitation 0.05 in 0.02 in 0.21 in (1923)
Month to date precipitation 0.05 0.04  
Year to date precipitation 5.53 10.13  
Snow  
Snow 0.00 in - - ()
Month to date snowfall 0.0  
Snow Depth 0.00 in    
Sea Level Pressure  
Sea Level Pressure 29.93 in    
Wind  
Wind Speed 9 mph (SE)    
Max Wind Speed 25 mph    
Max Gust Speed 32 mph    
Visibility 10 miles    
Events Rain    
T = Trace of Precipitation, MM = Missing Value Source: NWS Daily Summary

Daily Weather History Graph

Daily Weather History Graph

Search for Another Location

Airport or City:

Trip Planner

Search our weather history database for the weather conditions in past years. The results will help you decide how hot, cold, wet, or windy it might be!

Date:

Astronomy

Nov. 02, 2013 Rise Set
Actual Time 6:41 AM MST 5:32 PM MST
Civil Twilight 6:16 AM MST 5:57 PM MST
Nautical Twilight 5:47 AM MST 6:26 PM MST
Astronomical Twilight 5:18 AM MST 6:55 PM MST
Moon 5:45 AM MST (11/2) 5:05 PM MST (11/2)
Length of Visible Light 11h 41m
Length of Day
10h 50m
Waning Crescent, 1% of the Moon is Illuminated
Nov 2
Waning Crescent
Nov 3
New
Nov 9
First Quarter
Nov 17
Full
Nov 25
Last Quarter

Hourly Weather History & Observations

Time (MST) Temp. Dew Point Humidity Pressure Visibility Wind Dir Wind Speed Gust Speed Precip Events Conditions
12:53 AM 54.0 °F 21.0 °F 28% 30.01 in 10.0 mi SE 10.4 mph - N/A   Clear
1:53 AM 55.0 °F 18.0 °F 23% 29.99 in 10.0 mi ESE 4.6 mph - N/A   Clear
2:53 AM 51.1 °F 19.9 °F 29% 29.98 in 10.0 mi South 5.8 mph - N/A   Clear
3:53 AM 53.1 °F 19.0 °F 26% 29.96 in 10.0 mi SE 6.9 mph - N/A   Clear
4:53 AM 48.0 °F 21.0 °F 34% 29.99 in 10.0 mi Calm Calm - N/A   Clear
5:53 AM 50.0 °F 18.0 °F 28% 29.99 in 10.0 mi SSE 11.5 mph - N/A   Clear
6:53 AM 52.0 °F 17.1 °F 25% 29.99 in 10.0 mi South 5.8 mph - N/A   Clear
7:53 AM 54.0 °F 19.0 °F 25% 30.00 in 10.0 mi South 8.1 mph - N/A   Clear
8:49 AM 69.8 °F 15.8 °F 13% 30.08 in 10.0 mi SE 19.6 mph 27.6 mph N/A   Clear
8:53 AM 70.0 °F 15.1 °F 12% 29.99 in 10.0 mi ESE 18.4 mph 27.6 mph N/A   Clear
9:53 AM 75.9 °F 12.0 °F 9% 29.98 in 10.0 mi SE 21.9 mph 29.9 mph N/A   Clear
10:53 AM 79.0 °F 10.9 °F 8% 29.96 in 10.0 mi ESE 21.9 mph 31.1 mph N/A   Clear
11:53 AM 82.9 °F 9.0 °F 6% 29.93 in 10.0 mi SE 19.6 mph - N/A   Clear
12:53 PM 84.9 °F 10.0 °F 6% 29.89 in 10.0 mi SE 11.5 mph 21.9 mph N/A   Clear
1:53 PM 84.9 °F 10.9 °F 6% 29.86 in 10.0 mi SSE 9.2 mph - N/A   Clear
2:53 PM 84.9 °F 10.0 °F 6% 29.84 in 10.0 mi Variable 6.9 mph - N/A   Clear
3:53 PM 86.0 °F 9.0 °F 5% 29.82 in 10.0 mi SSE 6.9 mph - N/A   Clear
4:53 PM 84.9 °F 10.0 °F 6% 29.81 in 10.0 mi SE 5.8 mph - N/A   Clear
5:53 PM 79.0 °F 12.9 °F 8% 29.82 in 10.0 mi Calm Calm - N/A   Clear
6:53 PM 77.0 °F 14.0 °F 9% 29.83 in 10.0 mi South 5.8 mph - N/A   Partly Cloudy
7:53 PM 75.9 °F 15.1 °F 10% 29.84 in 10.0 mi Calm Calm - N/A   Mostly Cloudy
8:53 PM 73.9 °F 17.1 °F 12% 29.83 in 10.0 mi West 8.1 mph - N/A   Mostly Cloudy
9:53 PM 75.0 °F 27.0 °F 17% 29.88 in 10.0 mi South 11.5 mph 18.4 mph N/A   Overcast
10:53 PM 64.0 °F 50.0 °F 60% 29.92 in 9.0 mi Calm Calm - 0.03 in Rain Light Rain
11:21 PM 64.0 °F 50.0 °F 60% 30.00 in 10.0 mi ESE 12.7 mph - 0.02 in Rain Light Rain
11:53 PM 64.0 °F 50.0 °F 60% 29.89 in 10.0 mi ESE 10.4 mph - 0.02 in Rain Light Rain